◎2007 HAの接近    [From JSGA Web News No. 108]



JSGA Web News No. 108                                              2007 May 10



アポロ型特異小惑星 2007 HAの接近

 最近の発見としては,めずらしく明るい14等級のアポロ型小惑星 2007 HAがLINEAR

サーベイで2007年4月16.3日に深夜の衝位置にあるおとめ座に発見された.この小惑

星は,発見時,すでに 0.02 AUまで地球に接近していた.初期観測からの軌道決定の

結果,小惑星は,さらに,発見ちょうど1日後の4月17.4日UTに地球に 0.0166 AUま

で接近することが判明した.追跡の結果,小惑星は,接近頃の4月17.1日頃に11等級

まで明るくなった(下の位置予報は,1日間隔のため,その瞬間が抜けている).

 しかし,接近後,数日が経過した4月20日過ぎには,小惑星は,太陽と地球の間に

入り込み,急激に光度が暗くなり,4月20.0日UTの観測を最後に,その追跡ができな

くなった.しかし,その 5.6日間の間に各地から多くの追跡観測が報告され,我が国

で,雄踏の和久田俊一氏により,4月19日に捕らえられた.

  次の軌道は,以上の期間に行なわれた 448個の観測から決定されたもの.なお,小

惑星の直径は,約300-mと推測される.

               。

       Mo= 269.7762                Epoch = 2007 Apr. 10.0 TT

       ω = 133.1628                   e =   0.470051          H = 20.3

       Ω = 205.8435    (2000.0)       a =   0.892250 AU       G =  0.15

       i =  32.9974                   n゚=   1.1694306

       q =   0.472847 AU              P =   0.84 年



  参考のために,接近時の位置予報(地心)を示す.接近頃,小惑星は日々運動 15゚

以上の高速で空を移動した.



2007/        α  (2000) δ      △      r     日々運動   Elong.  Phase   V  

  0h TT     h  m       。  ,        AU      AU    ,  PA 。     。      。      等

Apr.  1   14 43.01  -53 49.4    0.197   1.122  11.8/343   124.4   47.2   18.8

      2   14 42.61  -53 38.1    0.185   1.117  14.7/341   125.3   46.9   18.7

      3   14 42.07  -53 24.2    0.173   1.111  18.2/340   126.2   46.5   18.5

      4   14 41.37  -53 07.1    0.161   1.105  22.5/339   127.2   46.1   18.3

      5   14 40.48  -52 46.1    0.149   1.099  27.7/338   128.2   45.6   18.1

      6   14 39.37  -52 20.3    0.137   1.093  34.4/338   129.4   45.1   17.9

      7   14 37.98  -51 48.4    0.125   1.087  43.1/338   130.6   44.4   17.7

      8   14 36.26  -51 08.4    0.114   1.080  54.6/338   131.9   43.6   17.4

      9   14 34.13  -50 17.7    0.102   1.074  70.5/338   133.5   42.6   17.1

     10   14 31.46  -49 12.2    0.090   1.067  93.2/339   135.3   41.3   16.8

     11   14 28.08  -47 45.2    0.078   1.061 127.6/339   137.5   39.7   16.5

     12   14 23.73  -45 45.7    0.067   1.054 182.8/340   140.2   37.5   16.0

     13   14 17.99  -42 53.5    0.055   1.048 279.4/341   143.9   34.3   15.5

     14   14 10.16  -38 28.6    0.044   1.041 467.1/342   149.1   29.6   14.9

     15   13 58.98  -31 02.3    0.033   1.034 876.4/344   157.5   21.8   14.0

     16   13 41.91  -16 57.4    0.024   1.027 733.4/345   172.7    7.1   12.7

     17   13 13.30  +11 03.3    0.017   1.020 355.1/346   157.8   21.8   12.6

     18   12 18.71  +48 37.0    0.018   1.013 548.5/339   118.0   61.1   13.8

     19   10 23.95  +70 36.8    0.025   1.005 778.3/313    91.6   86.9   15.4

     20   07 33.92  +75 59.2    0.035   0.998 425.7/272    78.1   99.9   16.6

     21   05 43.28  +74 34.9    0.046   0.990 261.6/246    70.5  107.0   17.6

     22   04 50.57  +72 20.0    0.057   0.983 175.9/233    65.6  111.4   18.3

     23   04 22.61  +70 25.7    0.068   0.975 126.4/226    62.1  114.3   18.9

     24   04 05.69  +68 55.1    0.080   0.968  95.6/222    59.5  116.4   19.3

     25   03 54.41  +67 42.8    0.091   0.960  75.3/219    57.4  118.0   19.7

     26   03 46.34  +66 43.9    0.103   0.952  61.3/217    55.7  119.2   20.0

     27   03 40.25  +65 54.8    0.115   0.944  51.3/216    54.2  120.1   20.3

     28   03 35.48  +65 12.8    0.127   0.936  44.1/214    52.9  120.9   20.6

     29   03 31.62  +64 36.3    0.138   0.928  38.6/213    51.7  121.6   20.8

     30   03 28.41  +64 03.8    0.150   0.919  34.5/212    50.6  122.1   21.0

May   1   03 25.69  +63 34.3    0.162   0.911  31.3/210    49.6  122.6   21.2





軌道と残差:

 

2007 HA

Epoch 2007 Apr. 10.0 TT = JDT 2454200.5                 Nakano

M 269.77617              (2000.0)            P               Q

n   1.16943057     Peri.  133.16279     +0.88233093     +0.40636636

a   0.8922497      Node   205.84349     -0.38956219     +0.91365621

e   0.4700509      Incl.   32.99742     +0.26407086     -0.00993559

P   0.84           H   20.3           G   0.15           U   6

Residuals in seconds of arc 

070416 704  0.1-  0.4+    070417 H51 (0.8+  2.7-)   070418 B24  0.4+  0.7-  

070416 704  0.6+  0.0     070417 H51  1.0+  2.0-    070418 B24  0.2+  0.6-  

070416 704  0.1+  0.4+    070417 H51  0.9+  1.6-    070418 B24  0.4+  0.2-  

070416 595  0.6+  0.1+    070417 H51  0.6+  1.7-    070418 B24  1.0+  0.3-  

070416 595  0.1+  0.3+    070417 H51 (0.8+  2.6-)   070418 B24  0.8-  0.0   

070416 595  0.0   0.5+    070417 H51  0.5+  1.8-    070418 138  0.4-  0.1+  

070416 595  0.1+  0.0     070417 H51  1.0+  2.0-    070418 138  0.3-  0.2+  

070416 473  0.0   0.5-    070417 H51  0.9+  1.8-    070418 138  0.4-  0.6+  

070416 473  0.1+  1.0-    070417 H51 (1.0+  2.6-)   070418 138  0.1-  0.1+  

070416 113  0.4+  1.6-    070417 H51  0.9+  1.9-    070418 A48  0.3+  0.2-  

070416 473  0.3+  0.1-    070417 H51 (1.0+  3.2-)   070418 A48  0.6-  0.2-  

070416 113 (0.7+  2.9-)   070417 H51  1.0+  1.0-    070418 A48  0.3+  0.0   

070416 113 (0.5+  2.3-)   070417 H51  0.7+  1.9-    070418 A48  0.4+  0.1-  

070416 113  0.5+  2.2-    070417 H51  0.9+  0.7-    070418 138  0.1-  0.1-  

070416 246 (3.1+ 11.0-)   070417 H51  0.9+  0.6-    070418 138  0.6-  0.4+  

070416 246 (3.1+ 10.5-)   070417 H51  0.3+  0.8-    070418 J69  0.0   0.1-  

070416 113  0.3-  1.0+    070417 H51  0.2+  0.0     070418 J69  0.3-  0.0   

070416 113  0.2-  0.3+    070417 H51  0.1-  1.3-    070418 J69  0.3+  0.5-  

070416 246 (1.8+  4.9-)   070417 H51  0.8+  1.9-    070418 J69  0.2-  0.1+  

070416 246  0.4+  0.8-    070417 H51  0.6+  0.9-    070418 J69  0.4-  0.1-  

070416 246  0.9+  1.2-    070417 H51  0.5+  1.1-    070418 J92  0.6+  0.5-  

070416 473  0.3+  1.0-    070417 H51  0.1+  0.6-    070418 138  0.1-  0.2+  

070416 952  0.1+  0.4-    070417 H51  0.7+  1.7-    070418 J92  0.3+  0.0   

070416 952  0.2+  0.0     070417 H51  0.2+  0.1+    070418 J92  0.6+  0.2+  

070416 952  0.1-  1.9+    070417 H51  0.7+  2.1-    070418 J92  0.1+  0.3+  

070416 A21 (1.9-  3.9+)   070417 H51  0.6+  1.5-    070418 J95  0.2-  0.1-  

070416 A21  0.5+  0.6-    070417 H51  0.4+  1.0-    070418 138  0.3-  0.2+  

070416 A21 (0.8-  2.3+)   070417 H51  0.1+  0.3-    070418 J95  0.0   0.2-  

070416 A21 (1.6-  3.9+)   070417 H51  0.2+  1.1-    070418 J95  0.0   0.1-  

070416 A21 (0.3-  2.7+)   070417 H51  0.2+  0.7-    070418 J69  0.7-  1.0+  

070416 A21 (1.0-  3.1+)   070417 H51  0.3+  1.6-    070418 J69  0.3+  0.2-  

070416 A21 (1.0-  2.9+)   070417 H36  0.3-  1.3+    070418 J69  0.5+  0.2-  

070416 A21 (0.7-  3.9+)   070417 H36  0.8-  1.2+    070418 J69  0.0   0.0   

070416 A21  0.2+  0.1-    070417 H36  0.1-  0.6+    070418 138  0.0   0.1+  

070416 A21  0.2-  0.8+    070417 H36  0.3-  0.6+    070418 J69  0.1+  0.3+  

070416 A21  0.2+  1.1+    070417 H36 (0.8-  3.3+)   070418 B30  0.9-  1.0+  

070416 A21 (0.6-  3.0+)   070417 H45  0.4-  1.9+    070418 B30  0.6-  0.3+  

070416 A21  0.2+  1.0+    070417 H45  0.1-  0.7+    070418 B30  0.3-  0.5+  

070416 A21  0.0   0.0     070417 H45  0.3-  1.1+    070418 B30  0.9-  0.3+  

070416 A21  0.1-  0.4+    070417 H45  0.1+  0.2-    070418 B30  0.1-  0.2+  

070416 A21  1.1+  1.0-    070417 H45  0.6-  1.4+    070418 B30  0.9-  0.1+  

070416 A21  0.2-  0.9+    070417 H45  0.2+  0.6+    070418 B30  0.5-  0.7+  

070416 A21  0.2-  1.1+    070417 H45  0.0   1.3+    070418 B30  0.8-  0.2+  

070416 A21  0.1+  0.3+    070417 H45  0.5-  1.6+    070418 B30  0.1-  0.5+  

070416 A21  0.1-  0.6+    070417 H45  0.4-  0.6+    070418 B30  0.1+  0.2-  

070416 A21  0.4+  0.7-    070417 H45  0.1-  1.2+    070418 B30  0.0   0.4+  

070416 A21  0.0   0.3+    070417 H45  0.4+  0.1-    070418 B30  0.1-  0.2+  

070416 A21  0.2-  1.0+    070417 H45  0.1-  0.3+    070418 B30  0.4+  0.2+  

070416 A21  0.2+  0.4-    070417 H45  0.6-  1.6+    070418 B30  0.7-  0.1+  

070416 A21  0.0   0.9+    070417 H45  0.2-  1.4+    070418 B30  0.3-  0.5+  

070416 A21  0.5-  1.6+    070417 H45  0.0   0.1-    070418 B30  0.6-  0.4+  

070416 A21  0.4-  1.6+    070417 H45  0.1+  0.0     070418 B30  0.1-  0.6+  

070416 952  0.5-  0.2+    070417 H45  0.1-  0.2+    070418 B30  1.2-  0.6+  

070416 952  0.1-  0.5-    070417 H45  0.4-  1.9+    070418 B30  0.2-  0.8+  

070416 952  0.0   0.8-    070417 H45  0.2-  0.7+    070418 B30  0.7-  1.0+  

070416 B30  0.0   1.1+    070417 H45  0.4-  1.6+    070418 B30  0.5-  0.3+  

070416 B30  0.1+  0.8+    070417 H45  0.1-  1.1+    070418 B30  0.1-  0.1+  

070416 B30  0.1+  0.3+    070417 H06  0.3-  1.2-    070418 B30  0.4+  0.0   

070416 B30  0.2-  1.1+    070417 H06  0.0   1.7-    070418 B30  0.7-  0.3+  

070416 B30  0.4-  1.9+    070417 H06  0.4+  0.5-    070418 B30  0.1-  0.8+  

070416 B30  0.2+  0.2+    070417 E12  0.0   0.4-    070418 B30  1.1-  0.5+  

070416 B30  0.1-  1.0+    070417 E12  0.2-  0.4-    070418 B30  0.1-  0.2+  

070416 B30  0.2+  1.1+    070417 E12  0.5-  0.1+    070418 B30  0.2-  0.5+  

070416 B30  0.2-  1.1+    070417 E12  0.2+  0.6-    070418 B30  0.2-  0.8+  

070416 B30  0.0   0.6+    070417 E12  0.2-  0.0     070418 B30  0.4-  1.1+  

070416 B30  0.2-  0.7+    070417 A97  0.4-  1.3+    070418 B30  0.7-  0.5+  

070416 B30  0.2-  1.1+    070417 A97  0.7-  0.4+    070418 B30  0.3-  0.5+  

070416 B30  0.3-  1.2+    070417 A97  0.7-  0.6+    070418 B30  0.3-  1.5+  

070416 B30  0.1-  0.5+    070417 A97  0.6-  0.5+    070418 B30  0.0   0.8+  

070416 B30  0.3+  0.6+    070417 A97  0.4-  0.1+    070418 B30  0.5+  0.0   

070416 B30  0.1+  0.1+    070417 143  0.7-  1.2-    070418 B30  0.4-  0.2+  

070416 B30  0.3+  0.8+    070417 143  0.2-  1.1-    070418 B30  0.3+  0.9+  

070416 B30  0.1-  0.9+    070417 143  0.4+  0.8-    070418 B30  0.2-  0.3+  

070416 B30  0.3-  0.8+    070417 A97  0.4-  0.1+    070418 B30  0.7+  0.1+  

070416 B30  0.1+  1.0+    070417 A97  0.6-  0.7+    070418 B30  1.0-  0.3+  

